Year,Month,Day,Hour,Minute,Value (Times are PST for temperature in C)
2016,05,25,00,00,12.20
2016,05,25,00,01,12.20
2016,05,25,00,02,12.20
2016,05,25,00,03,12.20
2016,05,25,00,04,12.20
2016,05,25,00,05,12.20
2016,05,25,00,06,12.20
2016,05,25,00,07,12.20
2016,05,25,00,08,12.10
2016,05,25,00,09,12.10
2016,05,25,00,10,12.10
2016,05,25,00,11,12.10
2016,05,25,00,12,12.10
2016,05,25,00,13,12.10
2016,05,25,00,14,12.10
2016,05,25,00,15,12.00
2016,05,25,00,16,12.00
2016,05,25,00,17,12.00
2016,05,25,00,18,11.90
2016,05,25,00,19,11.90
2016,05,25,00,20,11.90
2016,05,25,00,21,11.90
2016,05,25,00,22,11.90
2016,05,25,00,23,11.90
2016,05,25,00,24,11.90
2016,05,25,00,25,11.90
2016,05,25,00,26,11.90
2016,05,25,00,27,11.90
2016,05,25,00,28,11.90
2016,05,25,00,29,11.90
2016,05,25,00,30,11.90
2016,05,25,00,31,11.90
2016,05,25,00,32,11.80
2016,05,25,00,33,11.80
2016,05,25,00,34,11.80
2016,05,25,00,35,11.80
2016,05,25,00,36,11.80
2016,05,25,00,37,11.80
2016,05,25,00,38,11.80
2016,05,25,00,39,11.80
2016,05,25,00,40,11.80
2016,05,25,00,41,11.80
2016,05,25,00,42,11.80
2016,05,25,00,43,11.70
2016,05,25,00,44,11.80
2016,05,25,00,45,11.80
2016,05,25,00,46,11.80
2016,05,25,00,47,11.80
2016,05,25,00,48,11.70
2016,05,25,00,49,11.70
2016,05,25,00,50,11.70
2016,05,25,00,51,11.70
2016,05,25,00,52,11.60
2016,05,25,00,53,11.60
2016,05,25,00,54,11.60
2016,05,25,00,55,11.60
2016,05,25,00,56,11.60
2016,05,25,00,57,11.60
2016,05,25,00,58,11.60
2016,05,25,00,59,11.50
2016,05,25,01,00,11.50
2016,05,25,01,01,11.50
2016,05,25,01,02,11.40
2016,05,25,01,03,11.40
2016,05,25,01,04,11.40
2016,05,25,01,05,11.40
2016,05,25,01,06,11.30
2016,05,25,01,07,11.30
2016,05,25,01,08,11.30
2016,05,25,01,09,11.30
2016,05,25,01,10,11.30
2016,05,25,01,11,11.30
2016,05,25,01,12,11.30
2016,05,25,01,13,11.30
2016,05,25,01,14,11.30
2016,05,25,01,15,11.30
2016,05,25,01,16,11.30
2016,05,25,01,17,11.30
2016,05,25,01,18,11.30
2016,05,25,01,19,11.30
2016,05,25,01,20,11.30
2016,05,25,01,21,11.30
2016,05,25,01,22,11.30
2016,05,25,01,23,11.30
2016,05,25,01,24,11.20
2016,05,25,01,25,11.20
2016,05,25,01,26,11.20
2016,05,25,01,27,11.20
2016,05,25,01,28,11.20
2016,05,25,01,29,11.20
2016,05,25,01,30,11.20
2016,05,25,01,31,11.10
2016,05,25,01,32,11.10
2016,05,25,01,33,11.10
2016,05,25,01,34,11.10
2016,05,25,01,35,11.10
2016,05,25,01,36,11.10
2016,05,25,01,37,11.10
2016,05,25,01,38,11.00
2016,05,25,01,39,11.00
2016,05,25,01,40,11.00
2016,05,25,01,41,11.00
2016,05,25,01,42,10.90
2016,05,25,01,43,10.90
2016,05,25,01,44,10.90
2016,05,25,01,45,10.90
2016,05,25,01,46,10.80
2016,05,25,01,47,10.80
2016,05,25,01,48,10.70
2016,05,25,01,49,10.70
2016,05,25,01,50,10.70
2016,05,25,01,51,10.70
2016,05,25,01,52,10.70
2016,05,25,01,53,10.70
2016,05,25,01,54,10.70
2016,05,25,01,55,10.60
2016,05,25,01,56,10.60
2016,05,25,01,57,10.60
2016,05,25,01,58,10.60
2016,05,25,01,59,10.60
2016,05,25,02,00,10.50
2016,05,25,02,01,10.50
2016,05,25,02,02,10.50
2016,05,25,02,03,10.40
2016,05,25,02,04,10.40
2016,05,25,02,05,10.40
2016,05,25,02,06,10.40
2016,05,25,02,07,10.40
2016,05,25,02,08,10.40
2016,05,25,02,09,10.40
2016,05,25,02,10,10.40
2016,05,25,02,11,10.40
2016,05,25,02,12,10.40
2016,05,25,02,13,10.40
2016,05,25,02,14,10.40
2016,05,25,02,15,10.40
2016,05,25,02,16,10.50
2016,05,25,02,17,10.50
2016,05,25,02,18,10.60
2016,05,25,02,19,10.60
2016,05,25,02,20,10.60
2016,05,25,02,21,10.60
2016,05,25,02,22,10.60
2016,05,25,02,23,10.70
2016,05,25,02,24,10.70
2016,05,25,02,25,10.70
2016,05,25,02,26,10.70
2016,05,25,02,27,10.80
2016,05,25,02,28,10.80
2016,05,25,02,29,10.80
2016,05,25,02,30,10.80
2016,05,25,02,31,10.80
2016,05,25,02,32,10.80
2016,05,25,02,33,10.70
2016,05,25,02,34,10.70
2016,05,25,02,35,10.60
2016,05,25,02,36,10.50
2016,05,25,02,37,10.50
2016,05,25,02,38,10.50
2016,05,25,02,39,10.40
2016,05,25,02,40,10.40
2016,05,25,02,41,10.30
2016,05,25,02,42,10.30
2016,05,25,02,43,10.40
2016,05,25,02,44,10.40
2016,05,25,02,45,10.40
2016,05,25,02,46,10.50
2016,05,25,02,47,10.60
2016,05,25,02,48,10.60
2016,05,25,02,49,10.70
2016,05,25,02,50,10.70
2016,05,25,02,51,10.70
2016,05,25,02,52,10.80
2016,05,25,02,53,10.80
2016,05,25,02,54,10.80
2016,05,25,02,55,10.80
2016,05,25,02,56,10.80
2016,05,25,02,57,10.80
2016,05,25,02,58,10.80
2016,05,25,02,59,10.80
2016,05,25,03,00,10.80
2016,05,25,03,01,10.80
2016,05,25,03,02,10.80
2016,05,25,03,03,10.80
2016,05,25,03,04,10.70
2016,05,25,03,05,10.70
2016,05,25,03,06,10.70
2016,05,25,03,07,10.70
2016,05,25,03,08,10.70
2016,05,25,03,09,10.60
2016,05,25,03,10,10.60
2016,05,25,03,11,10.70
2016,05,25,03,12,10.70
2016,05,25,03,13,10.70
2016,05,25,03,14,10.70
2016,05,25,03,15,10.70
2016,05,25,03,16,10.70
2016,05,25,03,17,10.70
2016,05,25,03,18,10.70
2016,05,25,03,19,10.80
2016,05,25,03,20,10.80
2016,05,25,03,21,10.80
2016,05,25,03,22,10.90
2016,05,25,03,23,10.90
2016,05,25,03,24,10.90
2016,05,25,03,25,11.00
2016,05,25,03,26,11.10
2016,05,25,03,27,11.10
2016,05,25,03,28,11.10
2016,05,25,03,29,11.20
2016,05,25,03,30,11.20
2016,05,25,03,31,11.20
2016,05,25,03,32,11.20
2016,05,25,03,33,11.30
2016,05,25,03,34,11.30
2016,05,25,03,35,11.30
2016,05,25,03,36,11.30
2016,05,25,03,37,11.30
2016,05,25,03,38,11.40
2016,05,25,03,39,11.40
2016,05,25,03,40,11.40
2016,05,25,03,41,11.40
2016,05,25,03,42,11.40
2016,05,25,03,43,11.40
2016,05,25,03,44,11.40
2016,05,25,03,45,11.50
2016,05,25,03,46,11.50
2016,05,25,03,47,11.50
2016,05,25,03,48,11.60
2016,05,25,03,49,11.60
2016,05,25,03,50,11.60
2016,05,25,03,51,11.70
2016,05,25,03,52,11.70
2016,05,25,03,53,11.70
2016,05,25,03,54,11.70
2016,05,25,03,55,11.70
2016,05,25,03,56,11.70
2016,05,25,03,57,11.80
2016,05,25,03,58,11.80
2016,05,25,03,59,11.80
2016,05,25,04,00,11.80
2016,05,25,04,01,11.80
2016,05,25,04,02,11.80
2016,05,25,04,03,11.80
2016,05,25,04,04,11.80
2016,05,25,04,05,11.80
2016,05,25,04,06,11.80
2016,05,25,04,07,11.80
2016,05,25,04,08,11.80
2016,05,25,04,09,11.80
2016,05,25,04,10,11.80
2016,05,25,04,11,11.80
2016,05,25,04,12,11.70
2016,05,25,04,13,11.70
2016,05,25,04,14,11.70
2016,05,25,04,15,11.70
2016,05,25,04,16,11.70
2016,05,25,04,17,11.70
2016,05,25,04,18,11.70
2016,05,25,04,19,11.70
2016,05,25,04,20,11.70
2016,05,25,04,21,11.70
2016,05,25,04,22,11.70
2016,05,25,04,23,11.70
2016,05,25,04,24,11.70
2016,05,25,04,25,11.70
2016,05,25,04,26,11.60
2016,05,25,04,27,11.60
2016,05,25,04,28,11.60
2016,05,25,04,29,11.60
2016,05,25,04,30,11.60
2016,05,25,04,31,11.60
2016,05,25,04,32,11.60
2016,05,25,04,33,11.50
2016,05,25,04,34,11.50
2016,05,25,04,35,11.50
2016,05,25,04,36,11.50
2016,05,25,04,37,11.50
2016,05,25,04,38,11.40
2016,05,25,04,39,11.40
2016,05,25,04,40,11.40
2016,05,25,04,41,11.40
2016,05,25,04,42,11.40
2016,05,25,04,43,11.40
2016,05,25,04,44,11.40
2016,05,25,04,45,11.40
2016,05,25,04,46,11.40
2016,05,25,04,47,11.30
2016,05,25,04,48,11.30
2016,05,25,04,49,11.30
2016,05,25,04,50,11.30
2016,05,25,04,51,11.20
2016,05,25,04,52,11.20
2016,05,25,04,53,11.20
2016,05,25,04,54,11.20
2016,05,25,04,55,11.20
2016,05,25,04,56,11.10
2016,05,25,04,57,11.10
2016,05,25,04,58,11.10
2016,05,25,04,59,11.10
2016,05,25,05,00,11.20
2016,05,25,05,01,11.20
2016,05,25,05,02,11.20
2016,05,25,05,03,11.20
2016,05,25,05,04,11.20
2016,05,25,05,05,11.20
2016,05,25,05,06,11.20
2016,05,25,05,07,11.20
2016,05,25,05,08,11.10
2016,05,25,05,09,11.10
2016,05,25,05,10,11.10
2016,05,25,05,11,11.10
2016,05,25,05,12,11.10
2016,05,25,05,13,11.00
2016,05,25,05,14,10.90
2016,05,25,05,15,10.90
2016,05,25,05,16,10.90
2016,05,25,05,17,10.90
2016,05,25,05,18,10.90
2016,05,25,05,19,10.80
2016,05,25,05,20,10.80
2016,05,25,05,21,10.80
2016,05,25,05,22,10.80
2016,05,25,05,23,10.80
2016,05,25,05,24,10.80
2016,05,25,05,25,10.80
2016,05,25,05,26,10.80
2016,05,25,05,27,10.80
2016,05,25,05,28,10.70
2016,05,25,05,29,10.70
2016,05,25,05,30,10.70
2016,05,25,05,31,10.60
2016,05,25,05,32,10.60
2016,05,25,05,33,10.60
2016,05,25,05,34,10.50
2016,05,25,05,35,10.50
2016,05,25,05,36,10.40
2016,05,25,05,37,10.40
2016,05,25,05,38,10.40
2016,05,25,05,39,10.30
2016,05,25,05,40,10.30
2016,05,25,05,41,10.30
2016,05,25,05,42,10.30
2016,05,25,05,43,10.30
2016,05,25,05,44,10.20
2016,05,25,05,45,10.20
2016,05,25,05,46,10.20
2016,05,25,05,47,10.20
2016,05,25,05,48,10.20
2016,05,25,05,49,10.20
2016,05,25,05,50,10.20
2016,05,25,05,51,10.20
2016,05,25,05,52,10.20
2016,05,25,05,53,10.20
2016,05,25,05,54,10.20
2016,05,25,05,55,10.20
2016,05,25,05,56,10.20
2016,05,25,05,57,10.20
2016,05,25,05,58,10.20
2016,05,25,05,59,10.20
2016,05,25,06,00,10.20
2016,05,25,06,01,10.10
2016,05,25,06,02,10.10
2016,05,25,06,03,10.10
2016,05,25,06,04,10.10
2016,05,25,06,05,10.10
2016,05,25,06,06,10.00
2016,05,25,06,07,10.00
2016,05,25,06,08,10.00
2016,05,25,06,09,9.90
2016,05,25,06,10,9.90
2016,05,25,06,11,9.90
2016,05,25,06,12,9.90
2016,05,25,06,13,9.90
2016,05,25,06,14,9.90
2016,05,25,06,15,9.90
2016,05,25,06,16,9.90
2016,05,25,06,17,9.90
2016,05,25,06,18,9.90
2016,05,25,06,19,9.90
2016,05,25,06,20,9.90
2016,05,25,06,21,9.90
2016,05,25,06,22,10.00
2016,05,25,06,23,10.00
2016,05,25,06,24,10.00
2016,05,25,06,25,10.10
2016,05,25,06,26,10.10
2016,05,25,06,27,10.20
2016,05,25,06,28,10.20
2016,05,25,06,29,10.30
2016,05,25,06,30,10.30
2016,05,25,06,31,10.30
2016,05,25,06,32,10.40
2016,05,25,06,33,10.40
2016,05,25,06,34,10.40
2016,05,25,06,35,10.50
2016,05,25,06,36,10.50
2016,05,25,06,37,10.60
2016,05,25,06,38,10.60
2016,05,25,06,39,10.60
2016,05,25,06,40,10.70
2016,05,25,06,41,10.70
2016,05,25,06,42,10.80
2016,05,25,06,43,10.80
2016,05,25,06,44,10.90
2016,05,25,06,45,11.10
2016,05,25,06,46,11.20
2016,05,25,06,47,11.30
2016,05,25,06,48,11.30
2016,05,25,06,49,11.40
2016,05,25,06,50,11.50
2016,05,25,06,51,11.60
2016,05,25,06,52,11.60
2016,05,25,06,53,11.70
2016,05,25,06,54,11.70
2016,05,25,06,55,11.70
2016,05,25,06,56,11.80
2016,05,25,06,57,11.80
2016,05,25,06,58,11.80
2016,05,25,06,59,11.90
2016,05,25,07,00,12.00
2016,05,25,07,01,12.00
2016,05,25,07,02,12.10
2016,05,25,07,03,12.10
2016,05,25,07,04,12.10
2016,05,25,07,05,12.20
2016,05,25,07,06,12.20
2016,05,25,07,07,12.20
2016,05,25,07,08,12.20
2016,05,25,07,09,12.30
2016,05,25,07,10,12.30
2016,05,25,07,11,12.30
2016,05,25,07,12,12.40
2016,05,25,07,13,12.40
2016,05,25,07,14,12.40
2016,05,25,07,15,12.50
2016,05,25,07,16,12.60
2016,05,25,07,17,12.60
2016,05,25,07,18,12.70
2016,05,25,07,19,12.80
2016,05,25,07,20,12.80
2016,05,25,07,21,12.90
2016,05,25,07,22,13.00
2016,05,25,07,23,13.00
2016,05,25,07,24,13.00
2016,05,25,07,25,13.10
2016,05,25,07,26,13.10
2016,05,25,07,27,13.10
2016,05,25,07,28,13.20
2016,05,25,07,29,13.20
2016,05,25,07,30,13.20
2016,05,25,07,31,13.30
2016,05,25,07,32,13.30
2016,05,25,07,33,13.30
2016,05,25,07,34,13.30
2016,05,25,07,35,13.30
2016,05,25,07,36,13.40
2016,05,25,07,37,13.40
2016,05,25,07,38,13.40
2016,05,25,07,39,13.40
2016,05,25,07,40,13.50
2016,05,25,07,41,13.50
2016,05,25,07,42,13.60
2016,05,25,07,43,13.70
2016,05,25,07,44,13.80
2016,05,25,07,45,13.90
2016,05,25,07,46,14.00
2016,05,25,07,47,14.20
2016,05,25,07,48,14.30
2016,05,25,07,49,14.40
2016,05,25,07,50,14.50
2016,05,25,07,51,14.70
2016,05,25,07,52,14.70
2016,05,25,07,53,14.80
2016,05,25,07,54,14.90
2016,05,25,07,55,15.00
2016,05,25,07,56,15.00
2016,05,25,07,57,15.10
2016,05,25,07,58,15.00
2016,05,25,07,59,15.10
2016,05,25,08,00,15.10
2016,05,25,08,01,15.10
2016,05,25,08,02,15.10
2016,05,25,08,03,15.10
2016,05,25,08,04,15.00
2016,05,25,08,05,15.00
2016,05,25,08,06,14.90
2016,05,25,08,07,14.90
2016,05,25,08,08,14.90
2016,05,25,08,09,14.90
2016,05,25,08,10,14.90
2016,05,25,08,11,14.90
2016,05,25,08,12,14.80
2016,05,25,08,13,14.80
2016,05,25,08,14,14.90
2016,05,25,08,15,15.00
2016,05,25,08,16,15.10
2016,05,25,08,17,15.20
2016,05,25,08,18,15.30
2016,05,25,08,19,15.40
2016,05,25,08,20,15.40
2016,05,25,08,21,15.40
2016,05,25,08,22,15.40
2016,05,25,08,23,15.40
2016,05,25,08,24,15.40
2016,05,25,08,25,15.40
2016,05,25,08,26,15.50
2016,05,25,08,27,15.60
2016,05,25,08,28,15.60
2016,05,25,08,29,15.60
2016,05,25,08,30,15.50
2016,05,25,08,31,15.50
2016,05,25,08,32,15.50
2016,05,25,08,33,15.50
2016,05,25,08,34,15.50
2016,05,25,08,35,15.50
2016,05,25,08,36,15.50
2016,05,25,08,37,15.50
2016,05,25,08,38,15.60
2016,05,25,08,39,15.70
2016,05,25,08,40,15.80
2016,05,25,08,41,15.80
2016,05,25,08,42,15.80
2016,05,25,08,43,15.80
2016,05,25,08,44,15.80
2016,05,25,08,45,15.80
2016,05,25,08,46,15.90
2016,05,25,08,47,16.00
2016,05,25,08,48,16.00
2016,05,25,08,49,16.00
2016,05,25,08,50,16.00
2016,05,25,08,51,16.00
2016,05,25,08,52,16.00
2016,05,25,08,53,16.00
2016,05,25,08,54,16.10
2016,05,25,08,55,16.10
2016,05,25,08,56,16.20
2016,05,25,08,57,16.20
2016,05,25,08,58,16.20
2016,05,25,08,59,16.30
2016,05,25,09,00,16.30
2016,05,25,09,01,16.40
2016,05,25,09,02,16.60
2016,05,25,09,03,16.70
2016,05,25,09,04,16.80
2016,05,25,09,05,16.80
2016,05,25,09,06,16.90
2016,05,25,09,07,16.90
2016,05,25,09,08,17.00
2016,05,25,09,09,17.00
2016,05,25,09,10,16.90
2016,05,25,09,11,17.00
2016,05,25,09,12,17.00
2016,05,25,09,13,17.10
2016,05,25,09,14,17.10
2016,05,25,09,15,17.20
2016,05,25,09,16,17.20
2016,05,25,09,17,17.20
2016,05,25,09,18,17.20
2016,05,25,09,19,17.20
2016,05,25,09,20,17.10
2016,05,25,09,21,17.10
2016,05,25,09,22,17.00
2016,05,25,09,23,16.90
2016,05,25,09,24,16.80
2016,05,25,09,25,16.70
2016,05,25,09,26,16.60
2016,05,25,09,27,16.40
2016,05,25,09,28,16.40
2016,05,25,09,29,16.40
2016,05,25,09,30,16.50
2016,05,25,09,31,16.50
2016,05,25,09,32,16.60
2016,05,25,09,33,16.50
2016,05,25,09,34,16.50
2016,05,25,09,35,16.40
2016,05,25,09,36,16.40
2016,05,25,09,37,16.30
2016,05,25,09,38,16.20
2016,05,25,09,39,16.10
2016,05,25,09,40,16.00
2016,05,25,09,41,15.90
2016,05,25,09,42,15.80
2016,05,25,09,43,15.80
2016,05,25,09,44,15.80
2016,05,25,09,45,15.80
2016,05,25,09,46,15.80
2016,05,25,09,47,15.80
2016,05,25,09,48,15.80
2016,05,25,09,49,15.80
2016,05,25,09,50,15.80
2016,05,25,09,51,15.80
2016,05,25,09,52,15.70
2016,05,25,09,53,15.70
2016,05,25,09,54,15.70
2016,05,25,09,55,15.70
2016,05,25,09,56,15.70
2016,05,25,09,57,15.70
2016,05,25,09,58,15.70
2016,05,25,09,59,15.70
2016,05,25,10,00,15.70
2016,05,25,10,01,15.70
2016,05,25,10,02,15.70
2016,05,25,10,03,15.80
2016,05,25,10,04,15.80
2016,05,25,10,05,15.80
2016,05,25,10,06,15.80
2016,05,25,10,07,15.90
2016,05,25,10,08,15.90
2016,05,25,10,09,15.90
2016,05,25,10,10,16.00
2016,05,25,10,11,16.10
2016,05,25,10,12,16.10
2016,05,25,10,13,16.10
2016,05,25,10,14,16.10
2016,05,25,10,15,16.00
2016,05,25,10,16,16.00
2016,05,25,10,17,16.00
2016,05,25,10,18,16.10
2016,05,25,10,19,16.20
2016,05,25,10,20,16.30
2016,05,25,10,21,16.30
2016,05,25,10,22,16.40
2016,05,25,10,23,16.40
2016,05,25,10,24,16.50
2016,05,25,10,25,16.50
2016,05,25,10,26,16.40
2016,05,25,10,27,16.40
2016,05,25,10,28,16.40
2016,05,25,10,29,16.50
2016,05,25,10,30,16.60
2016,05,25,10,31,16.70
2016,05,25,10,32,16.60
2016,05,25,10,33,16.70
2016,05,25,10,34,16.70
2016,05,25,10,35,16.80
2016,05,25,10,36,16.90
2016,05,25,10,37,16.90
2016,05,25,10,38,16.90
2016,05,25,10,39,16.90
2016,05,25,10,40,16.90
2016,05,25,10,41,16.90
2016,05,25,10,42,17.00
2016,05,25,10,43,17.10
2016,05,25,10,44,17.10
2016,05,25,10,45,17.10
2016,05,25,10,46,17.20
2016,05,25,10,47,17.10
2016,05,25,10,48,17.00
2016,05,25,10,49,16.90
2016,05,25,10,50,16.80
2016,05,25,10,51,16.80
2016,05,25,10,52,16.80
2016,05,25,10,53,16.80
2016,05,25,10,54,17.00
2016,05,25,10,55,17.10
2016,05,25,10,56,17.20
2016,05,25,10,57,17.20
2016,05,25,10,58,17.30
2016,05,25,10,59,17.30
2016,05,25,11,00,17.40
2016,05,25,11,01,17.30
2016,05,25,11,02,17.20
2016,05,25,11,03,17.10
2016,05,25,11,04,17.00
2016,05,25,11,05,17.00
2016,05,25,11,06,16.90
2016,05,25,11,07,17.00
2016,05,25,11,08,17.00
2016,05,25,11,09,16.80
2016,05,25,11,10,16.80
2016,05,25,11,11,16.90
2016,05,25,11,12,16.90
2016,05,25,11,13,16.90
2016,05,25,11,14,17.00
2016,05,25,11,15,17.10
2016,05,25,11,16,17.20
2016,05,25,11,17,17.20
2016,05,25,11,18,17.30
2016,05,25,11,19,17.30
2016,05,25,11,20,17.40
2016,05,25,11,21,17.40
2016,05,25,11,22,17.40
2016,05,25,11,23,17.40
2016,05,25,11,24,17.30
2016,05,25,11,25,17.20
2016,05,25,11,26,17.10
2016,05,25,11,27,17.10
2016,05,25,11,28,17.20
2016,05,25,11,29,17.10
2016,05,25,11,30,17.00
2016,05,25,11,31,17.00
2016,05,25,11,32,16.90
2016,05,25,11,33,16.90
2016,05,25,11,34,17.00
2016,05,25,11,35,17.10
2016,05,25,11,36,17.20
2016,05,25,11,37,17.20
2016,05,25,11,38,17.20
2016,05,25,11,39,17.20
2016,05,25,11,40,17.10
2016,05,25,11,41,17.10
2016,05,25,11,42,17.10
2016,05,25,11,43,17.20
2016,05,25,11,44,17.20
2016,05,25,11,45,17.20
2016,05,25,11,46,17.20
2016,05,25,11,47,17.20
2016,05,25,11,48,17.20
2016,05,25,11,49,17.10
2016,05,25,11,50,17.10
2016,05,25,11,51,17.10
2016,05,25,11,52,17.20
2016,05,25,11,53,17.30
2016,05,25,11,54,17.30
2016,05,25,11,55,17.50
2016,05,25,11,56,17.60
2016,05,25,11,57,17.80
2016,05,25,11,58,17.90
2016,05,25,11,59,17.90
2016,05,25,12,00,17.80
2016,05,25,12,01,17.90
2016,05,25,12,02,17.90
2016,05,25,12,03,17.90
2016,05,25,12,04,17.90
2016,05,25,12,05,17.80
2016,05,25,12,06,17.90
2016,05,25,12,07,17.90
2016,05,25,12,08,17.70
2016,05,25,12,09,17.70
2016,05,25,12,10,17.60
2016,05,25,12,11,17.60
2016,05,25,12,12,17.70
2016,05,25,12,13,17.90
2016,05,25,12,14,17.90
2016,05,25,12,15,18.10
2016,05,25,12,16,18.20
2016,05,25,12,17,18.20
2016,05,25,12,18,18.20
2016,05,25,12,19,18.10
2016,05,25,12,20,18.00
2016,05,25,12,21,17.80
2016,05,25,12,22,17.60
2016,05,25,12,23,17.60
2016,05,25,12,24,17.60
2016,05,25,12,25,17.70
2016,05,25,12,26,17.70
2016,05,25,12,27,17.60
2016,05,25,12,28,17.70
2016,05,25,12,29,17.70
2016,05,25,12,30,17.70
2016,05,25,12,31,17.80
2016,05,25,12,32,17.80
2016,05,25,12,33,17.70
2016,05,25,12,34,17.70
2016,05,25,12,35,17.70
2016,05,25,12,36,17.60
2016,05,25,12,37,17.60
2016,05,25,12,38,17.70
2016,05,25,12,39,17.80
2016,05,25,12,40,17.90
2016,05,25,12,41,17.90
2016,05,25,12,42,17.90
2016,05,25,12,43,18.00
2016,05,25,12,44,18.10
2016,05,25,12,45,18.10
2016,05,25,12,46,18.10
2016,05,25,12,47,18.10
2016,05,25,12,48,18.10
2016,05,25,12,49,18.10
2016,05,25,12,50,18.20
2016,05,25,12,51,18.40
2016,05,25,12,52,18.50
2016,05,25,12,53,18.50
2016,05,25,12,54,18.40
2016,05,25,12,55,18.50
2016,05,25,12,56,18.40
2016,05,25,12,57,18.30
2016,05,25,12,58,18.30
2016,05,25,12,59,18.40
2016,05,25,13,00,18.40
2016,05,25,13,01,18.50
2016,05,25,13,02,18.60
2016,05,25,13,03,18.70
2016,05,25,13,04,18.80
2016,05,25,13,05,18.60
2016,05,25,13,06,18.50
2016,05,25,13,07,18.50
2016,05,25,13,08,18.60
2016,05,25,13,09,18.50
2016,05,25,13,10,18.50
2016,05,25,13,11,18.50
2016,05,25,13,12,18.50
2016,05,25,13,13,18.70
2016,05,25,13,14,18.70
2016,05,25,13,15,18.70
2016,05,25,13,16,18.70
2016,05,25,13,17,18.50
2016,05,25,13,18,18.40
2016,05,25,13,19,18.40
2016,05,25,13,20,18.50
2016,05,25,13,21,18.60
2016,05,25,13,22,18.60
2016,05,25,13,23,18.70
2016,05,25,13,24,18.70
2016,05,25,13,25,18.70
2016,05,25,13,26,18.70
2016,05,25,13,27,18.60
2016,05,25,13,28,18.60
2016,05,25,13,29,18.60
2016,05,25,13,30,18.50
2016,05,25,13,31,18.40
2016,05,25,13,32,18.40
2016,05,25,13,33,18.50
2016,05,25,13,34,18.30
2016,05,25,13,35,18.10
2016,05,25,13,36,17.90
2016,05,25,13,37,18.00
2016,05,25,13,38,18.10
2016,05,25,13,39,18.30
2016,05,25,13,40,18.40
2016,05,25,13,41,18.40
2016,05,25,13,42,18.40
2016,05,25,13,43,18.40
2016,05,25,13,44,18.40
2016,05,25,13,45,18.50
2016,05,25,13,46,18.40
2016,05,25,13,47,18.50
2016,05,25,13,48,18.50
2016,05,25,13,49,18.60
2016,05,25,13,50,18.70
2016,05,25,13,51,18.80
2016,05,25,13,52,19.00
2016,05,25,13,53,19.00
2016,05,25,13,54,19.00
2016,05,25,13,55,19.10
2016,05,25,13,56,19.20
2016,05,25,13,57,19.20
2016,05,25,13,58,19.20
2016,05,25,13,59,19.30
2016,05,25,14,00,19.30
2016,05,25,14,01,19.30
2016,05,25,14,02,19.40
2016,05,25,14,03,19.30
2016,05,25,14,04,19.40
2016,05,25,14,05,19.40
2016,05,25,14,06,19.40
2016,05,25,14,07,19.50
2016,05,25,14,08,19.60
2016,05,25,14,09,19.70
2016,05,25,14,10,19.80
2016,05,25,14,11,19.80
2016,05,25,14,12,19.80
2016,05,25,14,13,19.80
2016,05,25,14,14,19.90
2016,05,25,14,15,20.00
2016,05,25,14,16,19.90
2016,05,25,14,17,19.90
2016,05,25,14,18,19.70
2016,05,25,14,19,19.60
2016,05,25,14,20,19.50
2016,05,25,14,21,19.30
2016,05,25,14,22,19.30
2016,05,25,14,23,19.30
2016,05,25,14,24,19.40
2016,05,25,14,25,19.60
2016,05,25,14,26,19.70
2016,05,25,14,27,19.70
2016,05,25,14,28,19.60
2016,05,25,14,29,19.70
2016,05,25,14,30,19.60
2016,05,25,14,31,19.50
2016,05,25,14,32,19.40
2016,05,25,14,33,19.20
2016,05,25,14,34,19.30
2016,05,25,14,35,19.30
2016,05,25,14,36,19.30
2016,05,25,14,37,19.30
2016,05,25,14,38,19.30
2016,05,25,14,39,19.30
2016,05,25,14,40,19.40
2016,05,25,14,41,19.40
2016,05,25,14,42,19.40
2016,05,25,14,43,19.40
2016,05,25,14,44,19.50
2016,05,25,14,45,19.60
2016,05,25,14,46,19.50
2016,05,25,14,47,19.50
2016,05,25,14,48,19.70
2016,05,25,14,49,19.70
2016,05,25,14,50,19.50
2016,05,25,14,51,19.40
2016,05,25,14,52,19.30
2016,05,25,14,53,19.30
2016,05,25,14,54,19.30
2016,05,25,14,55,19.30
2016,05,25,14,56,19.30
2016,05,25,14,57,19.40
2016,05,25,14,58,19.40
2016,05,25,14,59,19.40
2016,05,25,15,00,19.40
2016,05,25,15,01,19.50
2016,05,25,15,02,19.60
2016,05,25,15,03,19.60
2016,05,25,15,04,19.60
2016,05,25,15,05,19.70
2016,05,25,15,06,19.60
2016,05,25,15,07,19.50
2016,05,25,15,08,19.60
2016,05,25,15,09,19.60
2016,05,25,15,10,19.50
2016,05,25,15,11,19.50
2016,05,25,15,12,19.60
2016,05,25,15,13,19.60
2016,05,25,15,14,19.50
2016,05,25,15,15,19.60
2016,05,25,15,16,19.60
2016,05,25,15,17,19.70
2016,05,25,15,18,19.70
2016,05,25,15,19,19.70
2016,05,25,15,20,19.70
2016,05,25,15,21,19.60
2016,05,25,15,22,19.50
2016,05,25,15,23,19.50
2016,05,25,15,24,19.50
2016,05,25,15,25,19.70
2016,05,25,15,26,19.80
2016,05,25,15,27,19.80
2016,05,25,15,28,19.90
2016,05,25,15,29,20.00
2016,05,25,15,30,20.10
2016,05,25,15,31,20.20
2016,05,25,15,32,20.30
2016,05,25,15,33,20.40
2016,05,25,15,34,20.40
2016,05,25,15,35,20.50
2016,05,25,15,36,20.60
2016,05,25,15,37,20.70
2016,05,25,15,38,20.60
2016,05,25,15,39,20.50
2016,05,25,15,40,20.50
2016,05,25,15,41,20.40
2016,05,25,15,42,20.30
2016,05,25,15,43,20.20
2016,05,25,15,44,20.20
2016,05,25,15,45,20.30
2016,05,25,15,46,20.30
2016,05,25,15,47,20.30
2016,05,25,15,48,20.40
2016,05,25,15,49,20.60
2016,05,25,15,50,20.60
2016,05,25,15,51,20.70
2016,05,25,15,52,20.70
2016,05,25,15,53,20.70
2016,05,25,15,54,20.60
2016,05,25,15,55,20.60
2016,05,25,15,56,20.50
2016,05,25,15,57,20.40
2016,05,25,15,58,20.30
2016,05,25,15,59,20.20
2016,05,25,16,00,20.30
2016,05,25,16,01,20.30
2016,05,25,16,02,20.40
2016,05,25,16,03,20.40
2016,05,25,16,04,20.50
2016,05,25,16,05,20.50
2016,05,25,16,06,20.40
2016,05,25,16,07,20.30
2016,05,25,16,08,20.20
2016,05,25,16,09,20.20
2016,05,25,16,10,20.10
2016,05,25,16,11,20.20
2016,05,25,16,12,20.20
2016,05,25,16,13,20.30
2016,05,25,16,14,20.30
2016,05,25,16,15,20.40
2016,05,25,16,16,20.50
2016,05,25,16,17,20.50
2016,05,25,16,18,20.40
2016,05,25,16,19,20.40
2016,05,25,16,20,20.30
2016,05,25,16,21,20.20
2016,05,25,16,22,20.20
2016,05,25,16,23,20.20
2016,05,25,16,24,20.10
2016,05,25,16,25,20.10
2016,05,25,16,26,20.10
2016,05,25,16,27,20.10
2016,05,25,16,28,20.20
2016,05,25,16,29,20.30
2016,05,25,16,30,20.30
2016,05,25,16,31,20.30
2016,05,25,16,32,20.30
2016,05,25,16,33,20.30
2016,05,25,16,34,20.30
2016,05,25,16,35,20.30
2016,05,25,16,36,20.20
2016,05,25,16,37,20.20
2016,05,25,16,38,20.20
2016,05,25,16,39,20.20
2016,05,25,16,40,20.20
2016,05,25,16,41,20.20
2016,05,25,16,42,20.20
2016,05,25,16,43,20.20
2016,05,25,16,44,20.10
2016,05,25,16,45,20.10
2016,05,25,16,46,20.10
2016,05,25,16,47,20.20
2016,05,25,16,48,20.20
2016,05,25,16,49,20.20
2016,05,25,16,50,20.10
2016,05,25,16,51,20.00
2016,05,25,16,52,19.90
2016,05,25,16,53,20.00
2016,05,25,16,54,20.00
2016,05,25,16,55,20.10
2016,05,25,16,56,20.10
2016,05,25,16,57,20.10
2016,05,25,16,58,20.10
2016,05,25,16,59,20.10
2016,05,25,17,00,20.10
2016,05,25,17,01,20.20
2016,05,25,17,02,20.20
2016,05,25,17,03,20.30
2016,05,25,17,04,20.30
2016,05,25,17,05,20.30
2016,05,25,17,06,20.40
2016,05,25,17,07,20.40
2016,05,25,17,08,20.40
2016,05,25,17,09,20.40
2016,05,25,17,10,20.40
2016,05,25,17,11,20.40
2016,05,25,17,12,20.30
2016,05,25,17,13,20.30
2016,05,25,17,14,20.30
2016,05,25,17,15,20.30
2016,05,25,17,16,20.30
2016,05,25,17,17,20.30
2016,05,25,17,18,20.30
2016,05,25,17,19,20.30
2016,05,25,17,20,20.30